Sacramento, CA

1:01 AM PDT on April 26, 2018 (GMT -0700)
Sacramento Executive

Weather History for KSAC - July, 2013

Change the Weather History Date:

Sunday, July 28, 2013

  Actual Average Record
Temperature  
Mean Temperature 72 °F -  
Max Temperature 87 °F 93 °F 108 °F (1954)
Min Temperature 56 °F 59 °F 53 °F (1966)
Degree Days  
Heating Degree Days 0    
Cooling Degree Days 7    
Growing Degree Days 21 (Base 50)    
Moisture  
Dew Point 53 °F    
Average Humidity 59    
Maximum Humidity 86    
Minimum Humidity 31    
Precipitation  
Precipitation 0.00 in 0.00 in 0.01 in (1964)
Month to date precipitation T 0.00  
Year to date precipitation 3.91 11.90  
Since 1 July precipitation T  
Sea Level Pressure  
Sea Level Pressure 29.78 in    
Wind  
Wind Speed 9 mph (SSW)    
Max Wind Speed 14 mph    
Max Gust Speed 21 mph    
Visibility 10 miles    
Events      
T = Trace of Precipitation, MM = Missing Value Source: NWS Daily Summary

Daily Weather History Graph

Daily Weather History Graph

Search for Another Location

Airport or City:

Astronomy

Jul. 28, 2013 Rise Set
Actual Time 6:04 AM PDT 8:19 PM PDT
Civil Twilight 5:34 AM PDT 8:49 PM PDT
Nautical Twilight 4:58 AM PDT 9:25 PM PDT
Astronomical Twilight 4:18 AM PDT 10:05 PM PDT
Moon 11:50 PM PDT (7/28) 12:46 PM PDT (7/28)
Length of Visible Light 15h 14m
Length of Day
14h 15m
Waning Gibbous, 60% of the Moon is Illuminated
Jul 28
Waning Gibbous
Jul 29
Last Quarter
Aug 6
New
Aug 14
First Quarter
Aug 20
Full

Hourly Weather History & Observations

Time (PDT) Temp. Heat Index Dew Point Humidity Pressure Visibility Wind Dir Wind Speed Gust Speed Precip Events Conditions
12:53 AM 62.1 °F - 53.1 °F 72% 29.81 in 10.0 mi South 8.1 mph - N/A   Clear
1:53 AM 62.1 °F - 53.1 °F 72% 29.80 in 10.0 mi South 5.8 mph - N/A   Clear
2:53 AM 61.0 °F - 53.1 °F 75% 29.79 in 10.0 mi SSW 10.4 mph 16.1 mph N/A   Clear
3:53 AM 59.0 °F - 53.1 °F 81% 29.78 in 10.0 mi South 6.9 mph - N/A   Clear
4:53 AM 57.9 °F - 53.1 °F 84% 29.78 in 10.0 mi SSW 9.2 mph - N/A   Clear
5:53 AM 57.0 °F - 52.0 °F 83% 29.79 in 10.0 mi SSW 11.5 mph - N/A   Clear
6:06 AM 55.4 °F - 51.8 °F 88% 29.79 in 10.0 mi SSW 6.9 mph - N/A   Partly Cloudy
6:53 AM 57.0 °F - 52.0 °F 83% 29.81 in 10.0 mi SSW 8.1 mph - N/A   Clear
7:53 AM 59.0 °F - 52.0 °F 78% 29.82 in 10.0 mi SSW 8.1 mph - N/A   Clear
8:53 AM 63.0 °F - 53.1 °F 70% 29.83 in 10.0 mi SSW 10.4 mph - N/A   Clear
9:53 AM 66.9 °F - 54.0 °F 63% 29.82 in 10.0 mi SSW 9.2 mph - N/A   Clear
10:53 AM 72.0 °F - 54.0 °F 53% 29.83 in 10.0 mi SSW 10.4 mph - N/A   Clear
11:53 AM 77.0 °F - 55.0 °F 47% 29.82 in 10.0 mi SW 9.2 mph - N/A   Clear
12:53 PM 80.1 °F 80.2 °F 55.9 °F 43% 29.80 in 10.0 mi SW 10.4 mph - N/A   Clear
1:53 PM 82.9 °F 82.4 °F 57.0 °F 41% 29.78 in 10.0 mi SW 10.4 mph - N/A   Clear
2:53 PM 84.9 °F 83.6 °F 55.0 °F 36% 29.76 in 10.0 mi SW 8.1 mph - N/A   Clear
3:53 PM 87.1 °F 85.1 °F 54.0 °F 32% 29.74 in 10.0 mi South 10.4 mph - N/A   Clear
4:53 PM 84.9 °F 83.6 °F 55.0 °F 36% 29.73 in 10.0 mi SSW 8.1 mph - N/A   Clear
5:53 PM 80.1 °F 79.9 °F 53.1 °F 39% 29.73 in 10.0 mi SSW 15.0 mph 19.6 mph N/A   Clear
6:53 PM 78.1 °F - 53.1 °F 42% 29.73 in 10.0 mi SSW 11.5 mph 18.4 mph N/A   Clear
7:53 PM 69.1 °F - 50.0 °F 51% 29.73 in 10.0 mi SSW 8.1 mph 17.3 mph N/A   Clear
8:53 PM 64.9 °F - 51.1 °F 61% 29.74 in 10.0 mi SSW 10.4 mph - N/A   Clear
9:53 PM 63.0 °F - 50.0 °F 63% 29.76 in 10.0 mi South 9.2 mph 17.3 mph N/A   Clear
10:53 PM 61.0 °F - 50.0 °F 67% 29.77 in 8.0 mi South 9.2 mph 19.6 mph N/A   Clear
11:53 PM 59.0 °F - 50.0 °F 72% 29.78 in 7.0 mi SSW 9.2 mph 18.4 mph N/A   Scattered Clouds